EW7114 Weather Reports


time (UTC)temp
C
wind
direction
speed
KPH
gust
KPH
rain 1hr
cm
rain 24hr
cm
rain mn
cm
humidity
%
barometer
mb
20260903005556 25 184 19.3 25.7 0.00 0.00 0.00 20 1000.2
20260903005055 25 135 19.3 30.6 0.00 0.00 0.00 20 1000.1
20260903004559 25 158 17.7 25.7 0.00 0.00 0.00 22 1000.1
20260903004055 26 168 16.1 32.2 0.00 0.00 0.00 22 1000.1
20260903003554 26 148 19.3 32.2 0.00 0.00 0.00 21 1000.1
20260903003056 26 157 22.5 33.8 0.00 0.00 0.00 20 1000.2
20260903002553 27 139 19.3 32.2 0.00 0.00 0.00 20 1000.2
20260903002054 27 168 22.5 37.0 0.00 0.00 0.00 19 1000.3
20260903001553 27 153 27.4 32.2 0.00 0.00 0.00 21 1000.2
20260903001053 27 144 24.1 40.2 0.00 0.00 0.00 19 1000.3
20260903000552 27 153 32.2 40.2 0.00 0.00 0.00 20 1000.2
20260903000053 27 154 24.1 38.6 0.00 0.00 0.00 21 1000.2
20260902235551 27 142 25.7 38.6 0.00 0.00 0.00 20 1000.3
20260902235053 27 182 27.4 38.6 0.00 0.00 0.00 20 1000.3
20260902234548 27 130 25.7 40.2 0.00 0.00 0.00 20 1000.4
20260902234049 27 163 30.6 40.2 0.00 0.00 0.00 20 1000.4
20260902233547 26 169 24.1 46.7 0.00 0.00 0.00 21 1000.5
20260902233047 26 154 27.4 48.3 0.00 0.00 0.00 21 1000.5
20260902232545 26 174 24.1 43.5 0.00 0.00 0.00 22 1000.5
20260902232046 26 129 25.7 38.6 0.00 0.00 0.00 21 1000.5
20260902231550 26 163 24.1 37.0 0.00 0.00 0.00 21 1000.5
20260902231048 27 197 24.1 37.0 0.00 0.00 0.00 21 1000.6
20260902230547 27 158 24.1 41.8 0.00 0.00 0.00 21 1000.6
20260902230044 27 178 29.0 35.4 0.00 0.00 0.00 20 1000.6
20260902225544 26 176 22.5 35.4 0.00 0.00 0.00 22 1000.6
20260902225044 26 176 20.9 41.8 0.00 0.00 0.00 22 1000.6
20260902224543 26 157 27.4 41.8 0.00 0.00 0.00 22 1000.6
20260902224042 26 136 27.4 46.7 0.00 0.00 0.00 22 1000.6
20260902223542 26 157 32.2 46.7 0.00 0.00 0.00 21 1000.6
20260902223041 27 143 29.0 45.1 0.00 0.00 0.00 22 1000.7
20260902222541 26 184 24.1 38.6 0.00 0.00 0.00 21 1000.7
20260902222043 26 170 24.1 37.0 0.00 0.00 0.00 22 1000.9
20260902221539 26 160 27.4 38.6 0.00 0.00 0.00 23 1000.8
20260902221039 27 149 24.1 38.6 0.00 0.00 0.00 22 1001.0
20260902220539 27 148 27.4 40.2 0.00 0.00 0.00 22 1001.0
20260902220040 27 188 25.7 37.0 0.00 0.00 0.00 22 1001.0
20260902215536 27 150 22.5 48.3 0.00 0.00 0.00 22 1001.1
20260902215038 27 151 29.0 51.5 0.00 0.00 0.00 22 1001.1
20260902214538 27 139 17.7 33.8 0.00 0.00 0.00 22 1001.2
20260902214035 27 181 20.9 38.6 0.00 0.00 0.00 22 1001.3
20260902213635 27 201 24.1 38.6 0.00 0.00 0.00 22 1001.4
20260902213033 26 194 25.7 49.9 0.00 0.00 0.00 22 1001.4
20260902212533 26 197 32.2 49.9 0.00 0.00 0.00 23 1001.5
20260902212033 27 169 19.3 32.2 0.00 0.00 0.00 23 1001.3
20260902211532 27 193 19.3 38.6 0.00 0.00 0.00 23 1001.5
20260902211032 27 186 25.7 40.2 0.00 0.00 0.00 22 1001.7
20260902210534 27 204 22.5 35.4 0.00 0.00 0.00 23 1001.5
20260902210036 27 158 22.5 40.2 0.00 0.00 0.00 23 1001.5
20260902205530 27 206 22.5 40.2 0.00 0.00 0.00 24 1001.6
20260902205030 27 195 19.3 38.6 0.00 0.00 0.00 22 1001.5
20260902204539 27 197 25.7 38.6 0.00 0.00 0.00 25 1001.6
20260902204029 26 161 24.1 35.4 0.00 0.00 0.00 23 1001.7
20260902203527 27 174 22.5 38.6 0.00 0.00 0.00 24 1001.7
20260902203027 27 194 22.5 46.7 0.00 0.00 0.00 25 1001.7
20260902202526 27 168 25.7 41.8 0.00 0.00 0.00 26 1001.7
20260902202026 27 201 29.0 37.0 0.00 0.00 0.00 24 1001.8
20260902201530 27 138 22.5 40.2 0.00 0.00 0.00 25 1001.7
20260902201024 26 178 14.5 41.8 0.00 0.00 0.00 25 1001.7
20260902200526 27 176 27.4 41.8 0.00 0.00 0.00 25 1002.0
20260902200024 27 148 25.7 35.4 0.00 0.00 0.00 25 1002.0
20260902195526 27 185 24.1 40.2 0.00 0.00 0.00 25 1002.1
20260902195021 26 194 25.7 40.2 0.00 0.00 0.00 26 1002.1
20260902194521 26 152 29.0 38.6 0.00 0.00 0.00 26 1002.2
20260902194024 26 159 25.7 38.6 0.00 0.00 0.00 27 1002.2
20260902193519 26 180 24.1 35.4 0.00 0.00 0.00 26 1002.3
20260902193019 26 187 19.3 37.0 0.00 0.00 0.00 26 1002.3
20260902192518 26 197 29.0 43.5 0.00 0.00 0.00 26 1002.5
20260902192017 26 167 27.4 43.5 0.00 0.00 0.00 27 1002.6
20260902191520 26 170 27.4 40.2 0.00 0.00 0.00 27 1002.6
20260902191016 26 173 22.5 46.7 0.00 0.00 0.00 27 1002.6
20260902190517 26 154 33.8 46.7 0.00 0.00 0.00 27 1002.5
20260902190016 26 201 22.5 41.8 0.00 0.00 0.00 27 1002.6
20260902185515 26 211 32.2 43.5 0.00 0.00 0.00 28 1002.8
20260902185014 26 195 25.7 43.5 0.00 0.00 0.00 28 1002.8
20260902184513 26 185 27.4 38.6 0.00 0.00 0.00 29 1002.8
20260902184013 26 160 19.3 41.8 0.00 0.00 0.00 27 1002.8
20260902183511 26 182 29.0 41.8 0.00 0.00 0.00 29 1002.9
20260902183010 25 168 17.7 38.6 0.00 0.00 0.00 29 1003.0
20260902182509 25 207 24.1 35.4 0.00 0.00 0.00 30 1003.2
20260902182009 25 190 20.9 37.0 0.00 0.00 0.00 30 1003.2
20260902181509 25 182 19.3 40.2 0.00 0.00 0.00 31 1003.2
20260902181008 25 189 22.5 41.8 0.00 0.00 0.00 31 1003.3
20260902180506 25 208 25.7 48.3 0.00 0.00 0.00 31 1003.4
20260902180007 25 190 32.2 48.3 0.00 0.00 0.00 34 1003.4
20260902175506 25 159 25.7 37.0 0.00 0.00 0.00 34 1003.3
20260902175010 25 161 29.0 46.7 0.00 0.00 0.00 33 1003.4
20260902174505 25 184 32.2 46.7 0.00 0.00 0.00 32 1003.5
20260902174008 25 151 30.6 53.1 0.00 0.00 0.00 34 1003.4
20260902173504 24 159 24.1 53.1 0.00 0.00 0.00 34 1003.4
20260902173005 25 192 20.9 46.7 0.00 0.00 0.00 35 1003.4
20260902172504 24 195 32.2 48.3 0.00 0.00 0.00 33 1003.5
20260902172004 24 198 30.6 48.3 0.00 0.00 0.00 33 1003.4
20260902171502 24 181 25.7 49.9 0.00 0.00 0.00 35 1003.4
20260902171004 24 192 30.6 43.5 0.00 0.00 0.00 34 1003.4
20260902170504 24 174 30.6 43.5 0.00 0.00 0.00 35 1003.4
20260902170002 25 159 29.0 46.7 0.00 0.00 0.00 35 1003.4
20260902165501 24 166 27.4 51.5 0.00 0.00 0.00 36 1003.3
20260902165003 24 201 33.8 51.5 0.00 0.00 0.00 35 1003.4
20260902164607 24 187 35.4 53.1 0.00 0.00 0.00 35 1003.3
20260902164100 23 178 35.4 53.1 0.00 0.00 0.00 36 1003.1
20260902163559 23 184 40.2 53.1 0.00 0.00 0.00 35 1003.1
20260902163059 23 136 30.6 53.1 0.00 0.00 0.00 37 1003.2
20260902162557 23 170 32.2 49.9 0.00 0.00 0.00 39 1003.1
20260902162059 23 179 37.0 49.9 0.00 0.00 0.00 39 1003.2
20260902161602 23 191 30.6 48.3 0.00 0.00 0.00 39 1003.2
20260902161057 23 159 35.4 51.5 0.00 0.00 0.00 38 1003.1
20260902160559 23 172 37.0 46.7 0.00 0.00 0.00 39 1003.3
20260902160054 23 172 35.4 54.7 0.00 0.00 0.00 40 1003.2
20260902155554 23 152 37.0 56.3 0.00 0.00 0.00 40 1003.3
20260902155053 23 144 35.4 49.9 0.00 0.00 0.00 41 1003.3
20260902154609 22 141 35.4 49.9 0.00 0.00 0.00 41 1003.3
20260902154052 22 145 37.0 48.3 0.00 0.00 0.00 41 1003.4
20260902153551 23 157 30.6 48.3 0.00 0.00 0.00 41 1003.5
20260902153051 23 165 33.8 43.5 0.00 0.00 0.00 41 1003.4
20260902152553 22 166 32.2 48.3 0.00 0.00 0.00 41 1003.5
20260902152049 22 152 32.2 48.3 0.00 0.00 0.00 42 1003.6
20260902151552 22 149 35.4 48.3 0.00 0.00 0.00 42 1003.7
20260902151046 22 161 33.8 45.1 0.00 0.00 0.00 44 1003.7
20260902150546 22 138 22.5 37.0 0.00 0.00 0.00 45 1003.6
20260902150046 22 181 25.7 38.6 0.00 0.00 0.00 44 1003.7
20260902145546 22 138 22.5 41.8 0.00 0.00 0.00 44 1003.7
20260902145045 21 145 24.1 40.2 0.00 0.00 0.00 45 1003.6
20260902144549 21 129 27.4 45.1 0.00 0.00 0.00 44 1003.4
20260902144044 21 150 27.4 45.1 0.00 0.00 0.00 44 1003.3
20260902143545 21 164 29.0 45.1 0.00 0.00 0.00 45 1003.3
20260902143043 21 139 20.9 51.5 0.00 0.00 0.00 43 1003.2
20260902142543 21 161 29.0 54.7 0.00 0.00 0.00 43 1003.2
20260902142043 21 151 24.1 43.5 0.00 0.00 0.00 44 1003.2
20260902141540 21 130 25.7 41.8 0.00 0.00 0.00 44 1003.3
20260902141039 20 155 29.0 41.8 0.00 0.00 0.00 45 1003.4
20260902140540 20 127 22.5 46.7 0.00 0.00 0.00 48 1003.4
20260902140041 20 157 25.7 38.6 0.00 0.00 0.00 49 1003.5
20260902135538 20 140 20.9 33.8 0.00 0.00 0.00 48 1003.4
20260902135038 20 142 24.1 38.6 0.00 0.00 0.00 49 1003.4
20260902134538 19 145 27.4 38.6 0.00 0.00 0.00 49 1003.5
20260902134038 18 141 17.7 30.6 0.00 0.00 0.00 52 1003.4
20260902133537 18 126 22.5 30.6 0.00 0.00 0.00 52 1003.4
20260902133040 17 153 20.9 27.4 0.00 0.00 0.00 53 1003.6
20260902132537 17 151 19.3 30.6 0.00 0.00 0.00 52 1003.5
20260902132036 18 174 22.5 30.6 0.00 0.00 0.00 52 1003.5
20260902131541 17 145 20.9 29.0 0.00 0.00 0.00 53 1003.6
20260902131042 18 161 19.3 29.0 0.00 0.00 0.00 52 1003.5
20260902130539 18 167 19.3 32.2 0.00 0.00 0.00 52 1003.5
20260902130136 18 132 17.7 32.2 0.00 0.00 0.00 52 1003.5
20260902125536 18 163 20.9 32.2 0.00 0.00 0.00 52 1003.3
20260902125036 18 133 20.9 35.4 0.00 0.00 0.00 53 1003.4
20260902124536 18 153 19.3 35.4 0.00 0.00 0.00 52 1003.4
20260902124035 18 161 19.3 29.0 0.00 0.00 0.00 53 1003.4
20260902123534 18 183 20.9 29.0 0.00 0.00 0.00 52 1003.5
20260902123035 18 140 20.9 27.4 0.00 0.00 0.00 53 1003.4
20260902122538 18 148 19.3 30.6 0.00 0.00 0.00 52 1003.4
20260902122034 19 157 19.3 30.6 0.00 0.00 0.00 51 1003.4
20260902121533 20 134 22.5 35.4 0.00 0.00 0.00 51 1003.2
20260902121033 20 134 20.9 35.4 0.00 0.00 0.00 50 1003.3
20260902120533 20 126 24.1 41.8 0.00 0.00 0.00 51 1003.3
20260902120134 20 127 29.0 41.8 0.00 0.00 0.00 50 1003.1
20260902115532 19 155 20.9 29.0 0.00 0.00 0.00 51 1003.2
20260902115032 20 149 17.7 27.4 0.00 0.00 0.00 49 1003.3
20260902114532 20 133 17.7 37.0 0.00 0.00 0.00 49 1003.3
20260902114031 20 135 27.4 35.4 0.00 0.00 0.00 49 1003.3
20260902113531 20 147 19.3 41.8 0.00 0.00 0.00 48 1003.3
20260902113032 20 126 20.9 41.8 0.00 0.00 0.00 48 1003.4
20260902112530 20 120 27.4 37.0 0.00 0.00 0.00 48 1003.4
20260902112031 20 152 22.5 48.3 0.00 0.00 0.00 49 1003.5
20260902111529 20 144 22.5 48.3 0.00 0.00 0.00 48 1003.5
20260902111027 20 134 20.9 35.4 0.00 0.00 0.00 50 1003.6
20260902110526 19 144 17.7 43.5 0.00 0.00 0.00 51 1003.5
20260902110026 19 168 27.4 43.5 0.00 0.00 0.00 52 1003.6
20260902105524 18 130 17.7 35.4 0.00 0.00 0.00 52 1003.5
20260902105025 17 138 20.9 35.4 0.00 0.00 0.00 53 1003.6
20260902104524 17 124 9.7 24.1 0.00 0.00 0.00 53 1003.6
20260902104026 17 153 12.9 27.4 0.00 0.00 0.00 53 1003.5
20260902103523 17 128 19.3 27.4 0.00 0.00 0.00 53 1003.6
20260902103036 17 144 19.3 24.1 0.00 0.00 0.00 52 1003.7
20260902102524 17 172 17.7 25.7 0.00 0.00 0.00 53 1003.6
20260902102023 17 142 16.1 27.4 0.00 0.00 0.00 52 1003.6
20260902101538 17 149 17.7 29.0 0.00 0.00 0.00 52 1003.6
20260902101026 17 140 19.3 33.8 0.00 0.00 0.00 52 1003.6
20260902100522 17 164 19.3 35.4 0.00 0.00 0.00 53 1003.7
20260902100022 16 185 17.7 27.4 0.00 0.00 0.00 53 1003.7
20260902095521 15 153 14.5 25.7 0.00 0.00 0.00 52 1003.7
20260902095020 15 157 11.3 22.5 0.00 0.00 0.00 53 1003.7
20260902094520 16 157 14.5 27.4 0.00 0.00 0.00 53 1003.7
20260902094019 15 126 19.3 25.7 0.00 0.00 0.00 52 1003.7
20260902093519 15 155 17.7 24.1 0.00 0.00 0.00 53 1003.7
20260902093018 16 157 16.1 29.0 0.00 0.00 0.00 53 1003.8
20260902092517 16 159 19.3 30.6 0.00 0.00 0.00 53 1003.7
20260902092018 16 145 19.3 30.6 0.00 0.00 0.00 52 1003.8
20260902091516 15 143 19.3 25.7 0.00 0.00 0.00 52 1003.8
20260902091014 15 166 14.5 24.1 0.00 0.00 0.00 53 1003.8
20260902090513 16 146 17.7 25.7 0.00 0.00 0.00 53 1003.7
20260902090012 16 166 19.3 25.7 0.00 0.00 0.00 53 1003.8
20260902085511 17 136 16.1 25.7 0.00 0.00 0.00 53 1003.9
20260902085011 18 125 12.9 25.7 0.00 0.00 0.00 51 1003.8
20260902084510 19 154 16.1 24.1 0.00 0.00 0.00 49 1003.8
20260902084010 19 146 14.5 27.4 0.00 0.00 0.00 49 1003.8
20260902083509 18 137 22.5 27.4 0.00 0.00 0.00 52 1003.8
20260902083008 16 127 16.1 22.5 0.00 0.00 0.00 53 1003.8
20260902082508 17 128 17.7 29.0 0.00 0.00 0.00 53 1003.9
20260902082008 17 125 19.3 29.0 0.00 0.00 0.00 53 1003.9
20260902081508 18 127 17.7 30.6 0.00 0.00 0.00 53 1003.9
20260902081007 18 120 22.5 30.6 0.00 0.00 0.00 53 1003.9
20260902080515 17 112 20.9 29.0 0.00 0.00 0.00 53 1004.0
20260902080006 18 132 19.3 24.1 0.00 0.00 0.00 53 1004.0
20260902075505 18 132 17.7 25.7 0.00 0.00 0.00 52 1003.9
20260902075005 18 130 19.3 30.6 0.00 0.00 0.00 52 1003.9
20260902074505 18 117 22.5 30.6 0.00 0.00 0.00 52 1003.9
20260902074105 18 123 22.5 27.4 0.00 0.00 0.00 52 1003.9
20260902073504 18 128 17.7 22.5 0.00 0.00 0.00 52 1003.8
20260902073003 19 146 16.1 29.0 0.00 0.00 0.00 51 1003.9
20260902072502 19 132 22.5 29.0 0.00 0.00 0.00 50 1003.9
20260902072001 19 124 22.5 29.0 0.00 0.00 0.00 51 1003.8
20260902071502 19 124 19.3 29.0 0.00 0.00 0.00 51 1003.8
20260902071003 19 120 19.3 32.2 0.00 0.00 0.00 51 1003.8
20260902070600 19 142 22.5 32.2 0.00 0.00 0.00 51 1003.7
20260902065558 18 118 24.1 33.8 0.00 0.00 0.00 51 1003.8
20260902065058 18 138 22.5 32.2 0.00 0.00 0.00 52 1003.8
20260902064617 18 120 20.9 27.4 0.00 0.00 0.00 52 1003.7
20260902064056 18 116 22.5 30.6 0.00 0.00 0.00 52 1003.8
20260902063554 18 130 22.5 30.6 0.00 0.00 0.00 52 1003.8
20260902063056 18 128 17.7 25.7 0.00 0.00 0.00 52 1003.8
20260902062554 17 123 19.3 25.7 0.00 0.00 0.00 53 1003.9
20260902062051 16 135 16.1 22.5 0.00 0.00 0.00 53 1003.9
20260902061553 16 122 16.1 22.5 0.00 0.00 0.00 53 1003.9
20260902061049 16 130 14.5 20.9 0.00 0.00 0.00 53 1003.9
20260902060550 17 130 12.9 24.1 0.00 0.00 0.00 52 1003.9
20260902060051 18 121 16.1 24.1 0.00 0.00 0.00 51 1004.0
20260902055545 18 120 17.7 25.7 0.00 0.00 0.00 51 1004.0
20260902055043 18 118 19.3 27.4 0.00 0.00 0.00 51 1004.0
20260902054543 18 122 22.5 27.4 0.00 0.00 0.00 50 1004.0
20260902054041 18 119 17.7 25.7 0.00 0.00 0.00 49 1004.1
20260902053539 18 115 19.3 25.7 0.00 0.00 0.00 49 1004.1
20260902053038 18 120 19.3 24.1 0.00 0.00 0.00 49 1004.1
20260902052541 19 109 19.3 24.1 0.00 0.00 0.00 48 1004.1
20260902052034 19 122 14.5 24.1 0.00 0.00 0.00 49 1004.1
20260902051533 19 130 16.1 25.7 0.00 0.00 0.00 48 1004.1
20260902051032 19 109 16.1 27.4 0.00 0.00 0.00 49 1004.1
20260902050533 19 100 17.7 27.4 0.00 0.00 0.00 48 1004.1
20260902050029 20 115 17.7 25.7 0.00 0.00 0.00 48 1004.0
20260902045527 20 116 16.1 29.0 0.00 0.00 0.00 48 1004.0
20260902045026 20 121 20.9 29.0 0.00 0.00 0.00 47 1004.1
20260902044526 20 120 16.1 25.7 0.00 0.00 0.00 48 1004.1
20260902044026 20 103 17.7 27.4 0.00 0.00 0.00 47 1004.0
20260902043526 19 132 17.7 27.4 0.00 0.00 0.00 49 1004.1
20260902043025 19 129 16.1 20.9 0.00 0.00 0.00 50 1004.1
20260902042526 20 116 11.3 24.1 0.00 0.00 0.00 50 1004.1
20260902042026 19 109 16.1 24.1 0.00 0.00 0.00 51 1004.1
20260902041524 18 117 12.9 16.1 0.00 0.00 0.00 53 1004.0
20260902041026 18 164 8.0 16.1 0.00 0.00 0.00 53 1004.0
20260902040520 18 118 11.3 17.7 0.00 0.00 0.00 53 1004.1
20260902040020 18 120 14.5 17.7 0.00 0.00 0.00 52 1004.2
20260902035518 18 120 11.3 16.1 0.00 0.00 0.00 52 1004.1
20260902035017 18 125 11.3 16.1 0.00 0.00 0.00 52 1004.0
20260902034516 18 118 12.9 19.3 0.00 0.00 0.00 52 1004.0
20260902034014 18 128 12.9 19.3 0.00 0.00 0.00 52 1003.9
20260902033512 18 110 12.9 17.7 0.00 0.00 0.00 52 1003.9
20260902033011 18 124 11.3 16.1 0.00 0.00 0.00 52 1003.8
20260902032509 18 120 9.7 14.5 0.00 0.00 0.00 52 1003.8
20260902032007 18 157 8.0 11.3 0.00 0.00 0.00 52 1003.7
20260902031506 18 147 8.0 12.9 0.00 0.00 0.00 52 1003.6
20260902031005 18 129 8.0 14.5 0.00 0.00 0.00 52 1003.5
20260902030503 18 118 9.7 14.5 0.00 0.00 0.00 51 1003.5
20260902030002 18 140 8.0 12.9 0.00 0.00 0.00 51 1003.4
20260902025502 18 134 8.0 11.3 0.00 0.00 0.00 51 1003.3
20260902025102 18 161 8.0 9.7 0.00 0.00 0.00 52 1003.3
20260902024609 20 172 6.4 12.9 0.00 0.00 0.00 52 1003.2
20260902024059 20 151 6.4 14.5 0.00 0.00 0.00 52 1003.0
20260902023555 20 145 8.0 14.5 0.00 0.00 0.00 52 1003.1
20260902023101 21 146 8.0 12.9 0.00 0.00 0.00 52 1003.0
20260902022553 21 157 9.7 16.1 0.00 0.00 0.00 51 1003.0
20260902022055 21 136 12.9 19.3 0.00 0.00 0.00 50 1003.0
20260902021554 21 147 12.9 19.3 0.00 0.00 0.00 50 1003.0
20260902021048 22 136 12.9 17.7 0.00 0.00 0.00 49 1003.1
20260902020547 22 172 14.5 17.7 0.00 0.00 0.00 49 1003.1
20260902020045 23 145 16.1 25.7 0.00 0.00 0.00 48 1003.1
20260902015543 23 146 17.7 27.4 0.00 0.00 0.00 47 1003.1
20260902015044 23 143 20.9 27.4 0.00 0.00 0.00 47 1003.2
20260902014543 23 163 17.7 25.7 0.00 0.00 0.00 47 1003.2
20260902014041 23 148 16.1 27.4 0.00 0.00 0.00 46 1003.3
20260902013537 23 149 19.3 27.4 0.00 0.00 0.00 46 1003.3
20260902013036 23 153 17.7 27.4 0.00 0.00 0.00 46 1003.4
20260902012535 24 138 16.1 27.4 0.00 0.00 0.00 46 1003.4
20260902012033 25 134 20.9 27.4 0.00 0.00 0.00 44 1003.5
20260902011532 25 153 17.7 29.0 0.00 0.00 0.00 42 1003.5
20260902011030 25 170 17.7 30.6 0.00 0.00 0.00 42 1003.6
20260902010528 24 177 19.3 30.6 0.00 0.00 0.00 42 1003.6
20260902010027 25 172 22.5 32.2 0.00 0.00 0.00 41 1003.6